WR9A-13 Weather Reports


time (UTC)temp
F
wind
direction
speed
knots
gust
knots
rain 1hr
in
rain 24hr
in
rain mn
in
humidity
%
barometer
mb
20260503231527 62 196 3.5 11.3 0.00 0.03 0.02 55 1010.8
20260503231015 62 214 4.3 11.3 0.00 0.03 0.02 55 1011.0
20260503230532 62 218 3.5 9.6 0.00 0.03 0.02 55 1010.9
20260503230024 62 182 5.2 13.0 0.00 0.03 0.02 54 1010.9
20260503225531 62 213 2.6 13.0 0.00 0.03 0.02 54 1011.0
20260503225028 62 174 5.2 13.0 0.00 0.03 0.02 53 1011.0
20260503224515 62 228 2.6 13.0 0.00 0.03 0.02 54 1011.1
20260503224032 62 185 5.2 13.0 0.00 0.03 0.02 53 1011.1
20260503223519 62 212 4.3 13.9 0.00 0.03 0.02 53 1011.2
20260503223017 63 237 6.1 13.9 0.00 0.03 0.02 53 1011.3
20260503222524 63 171 6.1 12.2 0.00 0.03 0.02 52 1011.2
20260503222021 63 165 4.3 15.6 0.00 0.03 0.02 53 1011.2
20260503221527 63 141 6.1 16.5 0.00 0.03 0.02 53 1011.2
20260503221024 63 186 6.1 19.1 0.00 0.03 0.02 52 1011.1
20260503220532 63 191 7.0 19.1 0.00 0.03 0.02 52 1011.2
20260503220024 63 217 8.7 14.8 0.00 0.03 0.02 52 1011.2
20260503215537 63 230 6.1 13.9 0.00 0.03 0.02 52 1011.2
20260503215025 63 207 7.8 13.9 0.00 0.03 0.02 52 1011.3
20260503214542 63 220 5.2 14.8 0.00 0.03 0.02 52 1011.3
20260503214028 63 233 3.5 13.0 0.00 0.03 0.02 52 1011.3
20260503213526 63 174 6.1 16.5 0.00 0.03 0.02 51 1011.4
20260503213014 64 253 6.1 14.8 0.00 0.03 0.02 50 1011.4
20260503212531 64 213 6.1 13.0 0.00 0.03 0.02 49 1011.4
20260503212019 65 187 7.8 13.9 0.00 0.03 0.02 49 1011.3
20260503211536 65 160 4.3 13.9 0.00 0.03 0.02 49 1011.5
20260503211024 64 166 3.5 16.5 0.00 0.03 0.02 53 1011.6
20260503210541 63 209 7.8 17.4 0.00 0.03 0.02 51 1011.6
20260503210020 63 185 7.0 15.6 0.00 0.03 0.02 50 1011.7
20260503205516 63 176 6.1 14.8 0.00 0.03 0.02 51 1011.7
20260503205035 62 217 4.3 16.5 0.00 0.03 0.02 53 1011.8
20260503204522 62 190 8.7 16.5 0.00 0.03 0.02 51 1011.8
20260503204038 62 184 5.2 15.6 0.00 0.03 0.02 52 1012.1
20260503203525 62 269 6.1 20.0 0.00 0.03 0.02 52 1012.3
20260503203042 62 166 5.2 20.0 0.00 0.03 0.02 52 1012.4
20260503202530 62 195 7.0 15.6 0.00 0.03 0.02 51 1012.6
20260503202018 63 203 6.1 15.6 0.00 0.03 0.02 50 1012.6
20260503201514 63 242 6.1 17.4 0.00 0.03 0.02 50 1012.7
20260503201032 63 231 4.3 13.0 0.00 0.03 0.02 51 1012.8
20260503200519 63 191 7.0 13.9 0.00 0.03 0.02 51 1012.7
20260503200029 63 269 7.8 18.2 0.00 0.03 0.02 50 1013.1
20260503195516 63 182 10.4 18.2 0.00 0.03 0.02 49 1013.2
20260503195032 64 244 7.8 17.4 0.00 0.03 0.02 49 1013.3
20260503194519 64 165 7.0 18.2 0.00 0.03 0.02 49 1013.3
20260503194014 64 180 9.6 17.4 0.00 0.03 0.02 48 1013.6
20260503193520 64 222 5.2 12.2 0.00 0.03 0.02 51 1013.6
20260503193014 64 103 7.0 14.8 0.00 0.03 0.02 51 1013.5
20260503192519 64 186 7.0 16.5 0.00 0.03 0.02 50 1013.8
20260503192016 63 203 6.1 16.5 0.00 0.03 0.02 50 1014.0
20260503191519 62 178 3.5 10.4 0.00 0.03 0.02 56 1014.2
20260503191017 61 120 5.2 10.4 0.00 0.03 0.02 59 1014.2
20260503190532 60 209 2.6 10.4 0.00 0.03 0.02 60 1014.6
20260503190041 60 197 6.1 17.4 0.00 0.04 0.02 61 1014.8
20260503185528 60 193 6.1 17.4 0.00 0.04 0.02 62 1014.7
20260503185016 59 234 7.0 13.0 0.00 0.04 0.02 56 1014.9
20260503184514 59 147 4.3 11.3 0.00 0.04 0.02 54 1014.8
20260503184022 59 177 6.1 11.3 0.00 0.04 0.02 51 1015.1
20260503183518 59 199 2.6 8.7 0.00 0.04 0.02 50 1015.6
20260503183033 59 225 4.3 10.4 0.00 0.04 0.02 53 1015.6
20260503182519 60 218 4.3 14.8 0.00 0.04 0.02 54 1015.6
20260503182035 60 255 7.0 14.8 0.00 0.04 0.02 53 1015.4
20260503181521 60 218 5.2 11.3 0.00 0.04 0.02 55 1015.4
20260503181038 60 208 4.3 10.4 0.00 0.04 0.02 56 1015.2
20260503180524 60 161 3.5 11.3 0.00 0.04 0.02 56 1015.3
20260503180015 59 217 5.2 12.2 0.01 0.04 0.02 56 1015.2
20260503175523 59 185 7.0 12.2 0.01 0.04 0.02 56 1015.3
20260503175020 59 230 7.8 13.0 0.01 0.04 0.02 56 1015.5
20260503174528 59 224 5.2 13.0 0.01 0.04 0.02 56 1015.6
20260503174025 58 182 5.2 13.0 0.01 0.04 0.02 57 1015.8
20260503173542 58 224 5.2 12.2 0.01 0.04 0.02 58 1016.0
20260503173030 58 214 6.1 12.2 0.01 0.04 0.02 58 1016.1
20260503172518 58 205 4.3 11.3 0.01 0.04 0.02 58 1016.5
20260503172014 57 242 5.2 12.2 0.01 0.04 0.02 58 1016.4
20260503171521 57 199 6.1 12.2 0.01 0.04 0.02 58 1016.5
20260503171017 58 243 5.2 13.0 0.01 0.04 0.02 60 1016.7
20260503170535 58 229 6.1 13.0 0.01 0.04 0.02 57 1016.8
20260503150529 58 239 7.8 18.2 0.00 0.03 0.01 54 1017.7
20260503131023 52 188 7.0 11.3 0.00 0.04 0.01 60 1018.4
20260503130520 51 186 3.5 9.6 0.00 0.04 0.01 62 1018.3
20260503110533 41 208 2.6 5.2 0.00 0.04 0.01 73 1017.7
20260503081542 41 230 2.6 7.0 0.01 0.05 0.01 71 1017.8
20260503081030 41 218 2.6 7.0 0.01 0.05 0.01 71 1018.0
20260503080527 41 209 1.7 4.3 0.01 0.05 0.01 72 1017.9
20260503072518 39 205 1.7 3.5 0.01 0.05 0.01 74 1018.1
20260503072035 39 199 1.7 3.5 0.00 0.04 0.00 74 1018.2
20260503071523 39 200 1.7 3.5 0.00 0.04 0.00 75 1018.1
20260503071039 39 198 1.7 3.5 0.00 0.04 0.00 75 1018.2
20260503070529 39 195 1.7 3.5 0.00 0.04 0.00 75 1018.2
20260503055019 39 332 0.0 2.6 0.00 0.04 0.00 75 1018.6
20260503054535 39 340 0.0 1.7 0.00 0.04 0.00 75 1018.6
20260503054023 39 342 0.0 1.7 0.00 0.04 0.00 75 1018.7
20260503053521 39 341 0.0 0.0 0.00 0.04 0.00 75 1018.6
20260503053029 39 340 0.0 0.0 0.00 0.04 0.00 75 1018.7
20260503052526 40 341 0.0 0.0 0.00 0.04 0.00 75 1018.8
20260503052014 40 340 0.0 0.0 0.00 0.04 0.00 75 1018.7
20260503051531 40 340 0.0 0.0 0.00 0.04 0.00 74 1018.8
20260503051017 40 340 0.0 0.0 0.00 0.04 0.00 74 1018.8
20260503050534 40 341 0.0 0.0 0.00 0.04 0.00 75 1018.9
20260503050016 40 340 0.0 0.0 0.00 0.04 0.00 74 1018.9
20260503045533 40 340 0.0 0.0 0.00 0.04 0.00 74 1018.9
20260503045021 40 341 0.0 0.0 0.00 0.04 0.00 74 1018.9
20260503044518 40 340 0.0 0.0 0.00 0.04 0.00 75 1018.9
20260503044036 40 341 0.0 0.0 0.00 0.04 0.00 74 1018.8
20260503043523 40 340 0.0 0.0 0.00 0.04 0.00 74 1018.8
20260503043039 40 341 0.0 0.0 0.00 0.04 0.00 74 1018.8
20260503042525 40 340 0.0 0.0 0.00 0.04 0.00 74 1018.8
20260503042041 40 340 0.0 0.0 0.00 0.04 0.00 73 1018.9
20260503041529 40 341 0.0 0.0 0.00 0.04 0.00 74 1018.9
20260503041027 41 341 0.0 0.0 0.00 0.04 0.00 73 1018.9
20260503040515 41 340 0.0 0.9 0.00 0.04 0.00 73 1018.9
20260503040025 41 340 0.0 0.9 0.00 0.05 0.04 72 1018.9
20260503035514 41 341 0.0 0.9 0.00 0.05 0.04 72 1018.9
20260503035031 41 341 0.0 0.0 0.00 0.05 0.04 72 1018.9
20260503034518 41 342 0.0 0.9 0.00 0.05 0.04 71 1019.0
20260503034015 41 340 0.0 0.9 0.00 0.05 0.04 71 1018.9
20260503033523 42 341 0.0 0.0 0.00 0.05 0.04 71 1019.0
20260503033020 42 342 0.0 0.0 0.00 0.05 0.04 71 1018.9
20260503032539 42 341 0.0 0.0 0.00 0.05 0.04 71 1018.9
20260503032026 42 341 0.0 0.0 0.00 0.05 0.04 71 1018.9
20260503031513 42 341 0.0 0.9 0.00 0.05 0.04 71 1019.0
20260503031026 42 343 0.0 0.9 0.00 0.05 0.04 70 1019.0
20260503030543 43 340 0.9 0.9 0.00 0.05 0.04 70 1019.0
20260503030024 43 341 0.0 0.9 0.00 0.05 0.04 69 1019.0
20260503025520 43 341 0.0 0.9 0.00 0.05 0.04 69 1019.0
20260503025028 43 340 0.0 0.9 0.00 0.05 0.04 69 1019.0
20260503024525 43 340 0.0 0.9 0.00 0.05 0.04 69 1019.0
20260503024033 44 341 0.0 1.7 0.00 0.05 0.04 68 1019.0
20260503023528 44 340 0.9 1.7 0.00 0.05 0.04 67 1019.0
20260503023016 44 340 0.9 1.7 0.00 0.05 0.04 67 1019.0
20260503022515 44 341 0.0 0.9 0.00 0.05 0.04 67 1019.0
20260503022022 44 340 0.0 0.9 0.00 0.05 0.04 66 1018.9
20260503021518 45 342 0.0 0.9 0.00 0.05 0.04 65 1018.9
20260503021025 45 341 0.0 1.7 0.00 0.05 0.04 64 1019.0
20260503020521 45 340 0.9 1.7 0.00 0.05 0.04 64 1019.0
20260503020032 46 341 0.0 0.9 0.00 0.05 0.04 62 1018.9
20260503015519 46 340 0.0 0.9 0.00 0.05 0.04 62 1018.9
20260503015036 46 340 0.9 0.9 0.00 0.05 0.04 61 1018.8
20260503014523 47 341 0.0 0.9 0.00 0.05 0.04 60 1018.8
20260503014040 47 341 0.0 0.0 0.00 0.05 0.04 59 1018.7
20260503013528 47 342 0.0 0.9 0.00 0.05 0.04 58 1018.7
20260503013025 48 342 0.0 0.9 0.00 0.05 0.04 57 1018.6
20260503012533 48 341 0.0 0.9 0.00 0.05 0.04 56 1018.5
20260503012030 48 340 0.0 0.9 0.00 0.05 0.04 55 1018.5
20260503011518 49 341 0.0 0.9 0.00 0.05 0.04 54 1018.6
20260503011034 49 340 0.9 0.9 0.00 0.05 0.04 52 1018.5
20260503010522 50 341 0.0 0.9 0.00 0.05 0.04 52 1018.5
20260503010033 50 342 0.0 1.7 0.00 0.05 0.04 51 1018.4
20260503005520 51 340 0.9 1.7 0.00 0.05 0.04 51 1018.5
20260503005017 51 341 0.0 0.9 0.00 0.05 0.04 48 1018.5
20260503004524 52 340 0.0 0.9 0.00 0.05 0.04 47 1018.5
20260503004020 52 340 0.0 0.9 0.00 0.05 0.04 46 1018.4
20260503003533 52 342 0.0 0.9 0.00 0.05 0.04 45 1018.5
20260503003020 52 340 0.9 2.6 0.00 0.05 0.04 44 1018.5
20260503002537 53 340 0.9 2.6 0.00 0.05 0.04 43 1018.5
20260503002025 53 341 0.9 1.7 0.01 0.05 0.04 44 1018.6
20260503001542 53 340 0.9 1.7 0.01 0.05 0.04 42 1018.4
20260503001029 53 342 0.0 1.7 0.01 0.05 0.04 42 1018.5
20260503000516 54 340 0.9 1.7 0.01 0.05 0.04 41 1018.4
20260503000027 54 341 0.9 5.2 0.01 0.05 0.04 41 1018.4
20260502235524 54 341 1.7 5.2 0.01 0.05 0.04 40 1018.4
20260502235032 54 5 1.7 7.0 0.01 0.05 0.04 40 1018.4
20260502234529 54 15 3.5 7.0 0.01 0.05 0.04 39 1018.5
20260502234017 55 338 2.6 6.1 0.01 0.05 0.04 39 1018.5
20260502233533 55 340 3.5 6.1 0.01 0.05 0.04 39 1018.5
20260502233020 55 334 1.7 4.3 0.01 0.05 0.04 39 1018.5
20260502232517 55 352 0.9 5.2 0.01 0.05 0.04 39 1018.5
20260502232024 55 302 1.7 5.2 0.00 0.04 0.03 38 1018.6